This is the latest recevied weather packets stored in our database for station/object WA4IKQ. If no packets are shown the sender has not sent any weather packets the latest 10 day(s).
| Time | Temp. | Humidity | Pressure | Rain* | Wind** | Luminosity | Snow |
|---|---|---|---|---|---|---|---|
| 1777620829 | 23.89° C | 84% | 1010.3 hPa | 0 mm | 1.34 m/s, 217° | - | - |
| 1777620584 | 23.89° C | 84% | 1010.4 hPa | 0 mm | 1.79 m/s, 233° | - | - |
| 1777620487 | 23.89° C | 84% | 1010.4 hPa | 0 mm | 1.79 m/s, 233° | - | - |
| 1777620222 | 24.44° C | 84% | 1010.5 hPa | 0 mm | 0 m/s | - | - |
| 1777620186 | 24.44° C | 84% | 1010.5 hPa | 0 mm | 0 m/s | - | - |
| 1777619953 | 24.44° C | 84% | 1010.6 hPa | 0 mm | 0.89 m/s, 205° | - | - |
| 1777619699 | 24.44° C | 84% | 1010.6 hPa | 0 mm | 0.45 m/s, 307° | - | - |
| 1777619584 | 24.44° C | 84% | 1010.6 hPa | 0 mm | 0.45 m/s, 307° | - | - |
| 1777619505 | 24.44° C | 84% | 1010.6 hPa | 0 mm | 1.34 m/s, 240° | - | - |
| 1777619460 | 24.44° C | 84% | 1010.6 hPa | 0 mm | 1.34 m/s, 240° | - | - |
| 1777619284 | 24.44° C | 84% | 1010.6 hPa | 0 mm | 1.34 m/s, 240° | - | - |
| 1777619104 | 24.44° C | 84% | 1010.6 hPa | 0 mm | 1.34 m/s, 215° | - | - |
| 1777619058 | 24.44° C | 84% | 1010.6 hPa | 0 mm | 1.34 m/s, 215° | - | - |
| 1777618985 | 24.44° C | 84% | 1010.6 hPa | 0 mm | 1.34 m/s, 215° | - | - |
| 1777618685 | 24.44° C | 83% | 1010.6 hPa | 0 mm | 0.89 m/s, 176° | - | - |
| 1777618458 | 24.44° C | 83% | 1010.6 hPa | 0 mm | 1.79 m/s, 233° | - | - |
| 1777618386 | 24.44° C | 83% | 1010.6 hPa | 0 mm | 1.79 m/s, 233° | - | - |
| 1777618118 | 24.44° C | 83% | 1010.6 hPa | 0 mm | 0.89 m/s, 221° | - | - |
| 1777618086 | 24.44° C | 83% | 1010.6 hPa | 0 mm | 0.89 m/s, 221° | - | - |
| 1777617847 | 24.44° C | 83% | 1010.6 hPa | 0 mm | 0.45 m/s, 156° | - | - |
| 1777617786 | 24.44° C | 83% | 1010.6 hPa | 0 mm | 0.45 m/s, 156° | - | - |
| 1777617536 | 24.44° C | 82% | 1010.7 hPa | 0 mm | 1.34 m/s, 249° | - | - |
| 1777617484 | 24.44° C | 82% | 1010.7 hPa | 0 mm | 1.34 m/s, 249° | - | - |
| 1777617299 | 24.44° C | 82% | 1010.7 hPa | 0 mm | 1.79 m/s, 198° | - | - |
| 1777617266 | 24.44° C | 82% | 1010.7 hPa | 0 mm | 1.79 m/s, 198° | - | - |
* Rain latest hour (hover to see other rain measurements)
** Current wind speed in m/s (hover to see current wind gust speed)